User: anonymous   Login
Location: Laterina
(43.5167°N, 11.7167°E)
Time: 22:13:17
(UTC+00:00)
Language:

Cosmos 1975 Rocket - Orbit

View from above orbital plane
View from above orbital plane
View from above satellite
View from above satellite

Ground track
Ground track

The orbit data is extracted from the following two-line orbital elements,

1 19574U 88093B   20327.75783090 +.00000111 +00000-0 +10579-4 0  9996
2 19574 082.5345 052.0180 0020289 302.1988 172.8060 14.83345158714337
Epoch (UTC): 22 November 2020 18:11:16
Eccentricity: 0.0020289
inclination: 82.5345°
perigee height: 604 km
apogee height: 633 km
right ascension of ascending node: 52.0180°
argument of perigee: 302.1988°
revolutions per day: 14.83345158
mean anomaly at epoch: 172.8060°
orbit number at epoch: 71433

The dashed part of the orbit path shows where the satellite is in the earth's shadow,  

DLR